Погода в Акъяре

Погода в Акъяре : погода сейчас, прогноз погоды и архив. Всё, что Вы хотите узнать о погоде в Акъяре!

Поиск расширенной информации на нашем сайте:

Другие новости

Новости СМИ2

Главная страница сайта

Новости сайта

03.07.2017

Напоминаем, что на нашем специализированном сайте Метеоцентр.Азия вы можете получить высокодетализированные автоматические прогнозы погоды по пунктам России, СНГ и мира в авиационном формате (включающие направление и скорость ветра, видимость, явления погоды, количество и форму облачности, нижнюю и верхнюю границу облачности).


Погода в Акъяре - сегодня

Время (UTC), дата Ветер
(°,м/с) 
Видим.   Явления Облачность Т
(°С)
Тd
(°С)
f(%) Тe
(°С)
Pmin
(гПа)
dP
(гПа)
Po
(мм)
O2
(г/м3)
Тmin Tmax R s Состояние
почвы
18 20.08.17 350 (С) 20000 м    4/3 600 м верхняя 
[Sc diur, vesp|Cc]
+19.5 +6.6 43 +21  1021.5  0.8  736  276           
21 20.08.17 040 (СВ) 20000 м    3/0 верхняя 
[Ci fib]
+17.3 +5.8 47 +18  1021.8  0.1  736  278           
00 21.08.17 030 (СВ) 20000 м    9/5 600 м верхняя 
[Sc|Cc]
+14.6 +5.6 55 +15  1022.3  0.1  737  281           
03 21.08.17 030 (СВ) 20000 м    9/6 600 м кучево-дожд., средняя, верхняя 
[Cb cap|Ac trans|Cc]
+17 +6.8 51 +18  1022.6  0.6  737  278  +14        сухая 
06 21.08.17 070 (В) 20000 м    3/0 средняя, верхняя 
[Ac cast|Ci fib]
+24.2 +5 29 +24  1021.5  0.1  737  272           
09 21.08.17 060 (СВ) 3{10}  20000 м    4/3 1000 м верхняя 
[Cu med, cong|Cc]
+27.3 +4.3 23 +27  1020.1  -1  736  269           
12 21.08.17 060 (СВ) 20000 м    5/5 600 м 
[Cu med, cong]
+27.9 +4.2 22 +28  1019.1  -0.9  736  268           
15 21.08.17 080 (В) 20000 м    3/3 600 м 
[Sc diur, vesp]
+24.3 +4.6 28 +24  1019.5  -0.1  735  271    +28.6       
18 21.08.17 060 (СВ) 20000 м    3/3 600 м 
[Sc diur, vesp]
+18.1 +6.6 47 +19  1021  0.6  736  277           
21 21.08.17 280 (З) 20000 м    ясно 
+15.7 +7.2 57 +17  1022.1  0.8  737  279           
00 22.08.17 340 (С) 20000 м    ясно 
+13.4 +6.7 64 +14  1023.2  0.7  737  282           
03 22.08.17 010 (С) 20000 м    ясно 
+17.8 +7.8 52 +18  1023.2  0.6  737  278  +12.5        сухая 
06 22.08.17 050 (СВ) 6-12{12}  20000 м    ясно 
+25.8 +3.1 23 +26  1022.1  737  271           
09 22.08.17 090 (В) 5{13}  20000 м    3/0 верхняя 
[Cs]
+28.8 +2.1 18 +29  1020.8  -0.9  737  268           
12 22.08.17 090 (В) 4{10}  20000 м    4/0 верхняя 
[Cs]
+29.8 +1.2 16 +30  1020.5  -0.2  737  267           
15 22.08.17 080 (В) 20000 м    4/0 верхняя 
[Cs]
+26.4 +2.9 22 +26  1021.1  0.2  737  270    +29.9       
18 22.08.17 060 (СВ) 20000 м    ясно 
+20 +3.2 33 +20  1023.3  1.3  738  276           
21 22.08.17 070 (В) 20000 м    ясно 
+16.7 +4 43 +18  1024.7  0.8  738  280           
00 23.08.17 040 (СВ) 20000 м    ясно 
+14.6 +4.3 50 +15  1026.2  1.2  739  282           
03 23.08.17 020 (С) 20000 м    3/0 верхняя 
[Cs]
+15.8 +5.4 50 +17  1027.8  1.8  741  281  +11.9        сухая 
06 23.08.17 070 (В) 20000 м    3/0 верхняя 
[Cs]
+26.5 +3.7 23 +27  1026.6  0.2  741  272           
09 23.08.17 130 (ЮВ) 20000 м    ясно 
+30.6 +0.1 14 +31  1025.3  -0.8  740  268           
12 23.08.17 060 (СВ) 20000 м    ясно 
+30.7 -0.9 13 +31  1024.6  -0.7  740  268           
15 23.08.17 080 (В) 20000 м    4/0 верхняя 
[Cs]
+27 +2.1 20 +27  1024.1  -0.9  739  271    +31.5       
18 23.08.17 160 (Ю) 20000 м    3/0 верхняя 
[Ci fib]
+19.2 +2.9 34 +21  1025.8  0.6  739  278           
Время (UTC), дата Ветер
(°,м/с) 
Видим.   Явления Облачность Т
(°С)
Тd
(°С)
f(%) Тe
(°С)
Pmin
(гПа)
dP
(гПа)
Po
(мм)
O2
(г/м3)
Тmin Tmax R s Состояние
почвы

Для получения пояснительной информации подведите курсор к названию столбца.

ПОГОДА в Акъяре - архив

Всё, что Вы хотите узнать о погоде в Акъяре - удобно и подробно!

Выберите нужную дату (начиная с 1 января 2015* года) и нажмите кнопку "Найти".
Будут отображены архивные сводки погоды по пункту Акъяр, начиная с указанной даты.


Отображать данные в формате CSV (для использования в таблицах Excel)


Внимание! Наш архив погоды предназначен исключительно для личного некоммерческого использования в познавательных целях. Если Вам необходимы официальные справки о состоянии погоды (для производственных, юридических, коммерческих и т.п. целей), обращайтесь в органы Росгидромета.

*Примечание: данная дата относится к архиву по метеостанциям СССР (Россия, СНГ, Балтия).
Архив по метеостанциям Зарубежной Европы и Азии (кроме Китая) хранится 10 дней, по другим регионам земного шара (Китай, Африка, Америка, Австралия, Океания) - 1 день.

Акъяр - район местоположения метеостанции


Название, широта, долгота, высота метеостанции:
Акъяр 51.9°ш. 58.2°д. 341 м над ур. моря [Российская Федерация]

Дополнительная информация

В oтличие oт бoльшинства пoгoдных сайтoв мы публикуем пoдрoбную метеoинфoрмацию в детальнoм прoфессиoнальнoм фoрмате.

Характеристики температуры и влажнoсти вoздуха измеряются на высoте 2 м в тени вдали oт зданий и деревьев.
Скoрoсть ветра измеряется на высoте 10 м (на урoвне рoста челoвека скoрoсть ветра ниже в 1.5-2 раза). Если метеoстанция нахoдится в гoрoде или в лесу, тo скoрoсть ветра занижена на 2-4 м/с пo сравнению с oткрытым местoм. Скoрoсть ветра над акватoриями крупных рек и oзёр, а также на вершинах хoлмoв на 2-5 м/с выше, чем в oбычных услoвиях.
Атмoсфернoе давление в разных тoчках местнoсти мoжет значительнo oтличаться oт давления на метеoстанции, в зависимoсти oт услoвий рельефа (при пoдъёме на 10 м давление пoнижается примернo на 1 мм рт.ст.).